Location: Newark
(45.5167°N, 11.1667°E)
Time: 02:53:48
(UTC+00:00)

ISS - Pass Details

Date: 20 November 2019
Orbit: 411 x 421 km, 51.6° (Epoch: 06 December)

Event Time Altitude Azimuth Distance (km) Brightness Sun altitude
Rises 17:25:32 0° 192° (SSW) 2,343 0.3 -18.2°
Reaches altitude 10° 17:28:22 10° 165° (SSE) 1,488 -1.0 -18.6°
Enters shadow 17:28:38 11° 162° (SSE) 1,436 -1.1 -18.7°
